When you browse on this site, cookies collect data to enhance your experience and personalize the content and advertising you see.
Visit our Privacy Policy to learn more. By continuing to use the site, you agree to this use of cookies and data.
  • In Schweiz
  • Länderverzeichnis
  • Für 7 Tage
  • Wassertemperatur
  • Wetterkarte
  • Widgets
  • user-avatar
    Anmelden

    Stündliche Wetter Mezhniki

    Heute, 19 August, Montag

    Zeit Temperatur Niederschläge Wind Luftdruck Luftfeuchtigkeit
    00:00 +14°C° 0 mm 2 m/S 741 mmHg 96%
    01:00 +14°C° 0 mm 2 m/S 741 mmHg 96%
    02:00 +14°C° 0 mm 2 m/S 741 mmHg 96%
    03:00 +13°C° 0 mm 2 m/S 742 mmHg 96%
    04:00 +13°C° 0 mm 1 m/S 742 mmHg 95%
    05:00 +13°C° 0 mm 1 m/S 742 mmHg 95%
    06:00 +14°C° 0 mm 1 m/S 743 mmHg 91%
    07:00 +16°C° 0 mm 1 m/S 743 mmHg 87%
    08:00 +19°C° 0 mm 1 m/S 743 mmHg 83%
    09:00 +19°C° 0 mm 2 m/S 743 mmHg 77%
    10:00 +21°C° 0 mm 2 m/S 744 mmHg 71%
    11:00 +24°C° 0 mm 3 m/S 744 mmHg 66%
    12:00 +24°C° 0 mm 3 m/S 744 mmHg 65%
    13:00 +25°C° 0 mm 3 m/S 744 mmHg 65%
    14:00 +26°C° 0 mm 3 m/S 744 mmHg 64%
    15:00 +25°C° 0 mm 3 m/S 744 mmHg 68%
    16:00 +25°C° 0 mm 3 m/S 744 mmHg 72%
    17:00 +25°C° 0 mm 3 m/S 744 mmHg 75%
    18:00 +22°C° 0 mm 3 m/S 744 mmHg 80%
    19:00 +21°C° 0 mm 3 m/S 744 mmHg 84%
    20:00 +19°C° 0 mm 3 m/S 745 mmHg 89%
    21:00 +19°C° 0 mm 3 m/S 745 mmHg 89%
    22:00 +18°C° 0 mm 3 m/S 744 mmHg 90%
    23:00 +18°C° 0 mm 3 m/S 744 mmHg 90%

    Morgen, 20 August, Dienstag

    Zeit Temperatur Niederschläge Wind Luftdruck Luftfeuchtigkeit
    00:00 +18°C° 0 mm 3 m/S 745 mmHg 90%
    01:00 +17°C° 0 mm 3 m/S 745 mmHg 90%
    02:00 +17°C° 0 mm 3 m/S 745 mmHg 90%
    03:00 +17°C° 0.4 mm 3 m/S 745 mmHg 91%
    04:00 +17°C° 0.4 mm 2 m/S 746 mmHg 93%
    05:00 +16°C° 0.4 mm 2 m/S 746 mmHg 95%
    06:00 +17°C° 0.2 mm 2 m/S 746 mmHg 94%
    07:00 +19°C° 0.2 mm 2 m/S 746 mmHg 92%
    08:00 +20°C° 0.2 mm 2 m/S 746 mmHg 91%
    09:00 +21°C° 0.1 mm 2 m/S 746 mmHg 86%
    10:00 +24°C° 0.1 mm 2 m/S 746 mmHg 81%
    11:00 +25°C° 0.1 mm 2 m/S 747 mmHg 76%
    12:00 +26°C° 0.9 mm 2 m/S 747 mmHg 77%
    13:00 +26°C° 0.9 mm 2 m/S 747 mmHg 77%
    14:00 +26°C° 0.9 mm 3 m/S 747 mmHg 77%
    15:00 +26°C° 0.5 mm 2 m/S 747 mmHg 80%
    16:00 +26°C° 0.5 mm 2 m/S 747 mmHg 82%
    17:00 +26°C° 0.5 mm 2 m/S 747 mmHg 85%
    18:00 +24°C° 0.4 mm 1 m/S 747 mmHg 87%
    19:00 +23°C° 0.4 mm 1 m/S 747 mmHg 90%
    20:00 +21°C° 0.4 mm 1 m/S 747 mmHg 92%
    21:00 +21°C° 0.2 mm 1 m/S 748 mmHg 93%
    22:00 +20°C° 0.2 mm 1 m/S 748 mmHg 94%
    23:00 +20°C° 0.2 mm 1 m/S 748 mmHg 95%

    übermorgen, 21 August, Mittwoch

    Zeit Temperatur Niederschläge Wind Luftdruck Luftfeuchtigkeit
    00:00 +19°C° 0 mm 1 m/S 748 mmHg 95%
    01:00 +19°C° 0 mm 1 m/S 748 mmHg 95%
    02:00 +19°C° 0 mm 1 m/S 748 mmHg 96%
    03:00 +19°C° 0 mm 1 m/S 748 mmHg 96%
    04:00 +19°C° 0 mm 1 m/S 748 mmHg 96%
    05:00 +18°C° 0 mm 1 m/S 748 mmHg 96%
    06:00 +19°C° 0 mm 1 m/S 748 mmHg 94%
    07:00 +21°C° 0 mm 1 m/S 748 mmHg 92%
    08:00 +22°C° 0 mm 1 m/S 748 mmHg 90%
    09:00 +23°C° 0.1 mm 2 m/S 748 mmHg 86%
    10:00 +24°C° 0.1 mm 2 m/S 748 mmHg 82%
    11:00 +25°C° 0.1 mm 3 m/S 748 mmHg 77%
    12:00 +26°C° 0.4 mm 3 m/S 748 mmHg 75%
    13:00 +26°C° 0.4 mm 3 m/S 747 mmHg 73%
    14:00 +27°C° 0.4 mm 3 m/S 747 mmHg 71%
    15:00 +27°C° 0 mm 3 m/S 747 mmHg 73%
    16:00 +27°C° 0 mm 3 m/S 746 mmHg 75%
    17:00 +26°C° 0 mm 2 m/S 746 mmHg 76%
    18:00 +25°C° 0 mm 3 m/S 746 mmHg 80%
    19:00 +22°C° 0 mm 3 m/S 746 mmHg 83%
    20:00 +21°C° 0 mm 3 m/S 746 mmHg 87%
    21:00 +20°C° 0 mm 3 m/S 746 mmHg 87%
    22:00 +20°C° 0 mm 3 m/S 746 mmHg 87%
    23:00 +19°C° 0 mm 2 m/S 746 mmHg 87%

    22 August, Donnerstag

    Zeit Temperatur Niederschläge Wind Luftdruck Luftfeuchtigkeit
    00:00 +19°C° 0.2 mm 2 m/S 746 mmHg 89%
    01:00 +18°C° 0.2 mm 2 m/S 746 mmHg 91%
    02:00 +18°C° 0.2 mm 2 m/S 746 mmHg 92%
    03:00 +18°C° 0.4 mm 2 m/S 746 mmHg 94%
    04:00 +17°C° 0.4 mm 2 m/S 746 mmHg 95%
    05:00 +17°C° 0.4 mm 2 m/S 746 mmHg 97%
    06:00 +17°C° 0.1 mm 3 m/S 746 mmHg 96%
    07:00 +17°C° 0.1 mm 3 m/S 747 mmHg 95%
    08:00 +15°C° 0.1 mm 4 m/S 747 mmHg 94%
    09:00 +17°C° 0 mm 3 m/S 747 mmHg 91%
    10:00 +18°C° 0 mm 3 m/S 747 mmHg 87%
    11:00 +19°C° 0 mm 3 m/S 747 mmHg 84%
    12:00 +19°C° 0 mm 3 m/S 748 mmHg 82%
    13:00 +19°C° 0 mm 3 m/S 748 mmHg 80%
    14:00 +20°C° 0 mm 3 m/S 748 mmHg 78%
    15:00 +20°C° 0 mm 3 m/S 748 mmHg 79%
    16:00 +20°C° 0 mm 3 m/S 747 mmHg 79%
    17:00 +19°C° 0 mm 2 m/S 747 mmHg 80%
    18:00 +18°C° 0 mm 2 m/S 748 mmHg 84%
    19:00 +17°C° 0 mm 2 m/S 748 mmHg 87%
    20:00 +16°C° 0 mm 1 m/S 748 mmHg 90%
    21:00 +16°C° 0 mm 2 m/S 748 mmHg 92%
    22:00 +15°C° 0 mm 2 m/S 748 mmHg 93%
    23:00 +15°C° 0 mm 2 m/S 748 mmHg 94%

    23 August, Freitag

    Zeit Temperatur Niederschläge Wind Luftdruck Luftfeuchtigkeit
    00:00 +15°C° 0 mm 2 m/S 748 mmHg 94%
    01:00 +14°C° 0 mm 2 m/S 748 mmHg 94%
    02:00 +14°C° 0 mm 2 m/S 748 mmHg 93%
    03:00 +14°C° 0 mm 2 m/S 748 mmHg 94%
    04:00 +14°C° 0 mm 2 m/S 748 mmHg 94%
    05:00 +13°C° 0 mm 2 m/S 748 mmHg 94%
    06:00 +15°C° 0 mm 2 m/S 748 mmHg 89%
    07:00 +16°C° 0 mm 2 m/S 748 mmHg 85%
    08:00 +18°C° 0 mm 2 m/S 748 mmHg 80%
    09:00 +19°C° 0 mm 2 m/S 748 mmHg 75%
    10:00 +20°C° 0 mm 2 m/S 748 mmHg 69%
    11:00 +21°C° 0 mm 2 m/S 749 mmHg 63%
    12:00 +21°C° 0.1 mm 3 m/S 748 mmHg 62%
    13:00 +21°C° 0.1 mm 3 m/S 748 mmHg 62%
    14:00 +21°C° 0.1 mm 3 m/S 748 mmHg 62%
    15:00 +21°C° 0.3 mm 3 m/S 748 mmHg 67%
    16:00 +20°C° 0.3 mm 2 m/S 748 mmHg 72%
    17:00 +19°C° 0.3 mm 2 m/S 748 mmHg 77%
    18:00 +18°C° 0 mm 2 m/S 748 mmHg 80%
    19:00 +16°C° 0 mm 3 m/S 749 mmHg 82%
    20:00 +13°C° 0 mm 3 m/S 749 mmHg 85%
    21:00 +13°C° 0 mm 3 m/S 749 mmHg 87%
    22:00 +12°C° 0 mm 3 m/S 749 mmHg 90%
    23:00 +11°C° 0 mm 3 m/S 749 mmHg 92%

    24 August, Samstag

    Zeit Temperatur Niederschläge Wind Luftdruck Luftfeuchtigkeit
    00:00 +11°C° 0 mm 3 m/S 749 mmHg 93%
    01:00 +11°C° 0 mm 3 m/S 750 mmHg 94%
    02:00 +10°C° 0 mm 3 m/S 750 mmHg 95%
    03:00 +10°C° 0 mm 2 m/S 750 mmHg 95%
    04:00 +10°C° 0 mm 2 m/S 750 mmHg 96%
    05:00 +9°C° 0 mm 2 m/S 750 mmHg 96%
    06:00 +12°C° 0 mm 2 m/S 750 mmHg 91%
    07:00 +14°C° 0 mm 2 m/S 751 mmHg 86%
    08:00 +15°C° 0 mm 2 m/S 751 mmHg 80%
    09:00 +17°C° 0 mm 2 m/S 751 mmHg 72%
    10:00 +18°C° 0 mm 2 m/S 751 mmHg 65%
    11:00 +20°C° 0 mm 2 m/S 751 mmHg 57%
    12:00 +20°C° 0 mm 2 m/S 751 mmHg 55%
    13:00 +21°C° 0 mm 2 m/S 751 mmHg 54%
    14:00 +21°C° 0 mm 2 m/S 751 mmHg 52%
    15:00 +21°C° 0 mm 2 m/S 751 mmHg 57%
    16:00 +22°C° 0 mm 1 m/S 751 mmHg 62%
    17:00 +22°C° 0 mm 1 m/S 751 mmHg 67%
    18:00 +20°C° 0 mm 1 m/S 751 mmHg 72%
    19:00 +18°C° 0 mm 1 m/S 751 mmHg 76%
    20:00 +15°C° 0 mm 1 m/S 751 mmHg 81%
    21:00 +14°C° 0 mm 1 m/S 751 mmHg 83%
    22:00 +14°C° 0 mm 1 m/S 751 mmHg 85%
    23:00 +13°C° 0 mm 1 m/S 751 mmHg 87%
    Mehr zeigen